Location: Arrien
(43.3167°N, 0.1500°W)
Time: 03:20:51
(UTC+00:00)

Cosmos 1174 - Pass Details

Date: 15 October 2021
Orbit: 373 x 1139 km, 66.1° (Epoch: 02 December)

Event Time Altitude Azimuth Distance (km) Brightness Sun altitude
Rises 17:55:17 0° 188° (S) 2,562 7.4 -7.7°
Reaches altitude 10° 17:57:45 10° 175° (S) 1,582 6.2 -8.1°
Maximum altitude 18:00:41 26° 117° (ESE) 847 4.3 -8.6°
Enters shadow 18:03:18 10° 57° (ENE) 1,415 5.4 -9.1°
